EHI
0 0 0 0 0 0 0 0 0 0 0 0 0 0 0 0 0 0 0 0 0 0 0 0 0 0 0 0 0 0 0 0 0 0 0 0 0 0 0 0 0 0 0
0 0 0 0 0 0 0 0 0 0 0 0 0 0 0 0 0 0 0 0 0 0 0 0 0 0 0 0 0 0 0 0 0 0 0 0 0 0 0 0 0 0 0
0 0 0 0 0 0 0 0 0 0 0 0 0 0 0 0 0 0 0 0 0 0 0 0 0 0 0 0 0 0 0 0 0 0 0 0 0 0 0 0 0 0 0
0 0 0 0 0 0 0 0 0 0 0 0 0 0 0 0 0 0 0 0 0 0 0 0 0 0 0 0 0 0 0 0 0 0 0 0 0 0 0 0 0 0 0
0 0 0 0 0 0 0 0 0 0 0 0 0 0 0 0 0 0 0 0 0 0 0 0 0 0 0 0 0 0 0 0 0 0 0 0 0 0 0 0 0 0 0
0 0 0 0 0 0 0 0 0 0 0 0 0 0 0 0 0 0 0 0 0 0 0 0 0 0 0 0 0 0 0 0 0 0 0 0 0 0 0 0 0 0 0
0 0 0 0 0 0 0 0 0 0 0 0 0 0 0 0 0 0 0 0 0 0 0 0 0 0 0 0 0 0 0 0 0 0 0 0 0 0 0 0 0 0 0
0 0 0 0 0 0 0 0 0 0 0 0 0 0 0 0 0 0 0 0 0 0 0 0 0 0 0 0 0 0 0 0 0 0 0 0 0 0 0 0 0 0 0
0 0 0 0 0 0 0 0 0 0 0 0 0 0 0 0 0 0 0 0 0 0 0 0 0 0 0 0 0 0 0 0 0 0 0 0 0 0 0 0 0 0 0
0 0 0 0 0 0 0 0 0 0 0 0 0 0 0 0 0 0 0 0 0 0 0 0 0 0 0 0 0 0 0 0 0 0 0 0 0 0 0 0 0 0 0
0 0 0 0 0 0 0 0 0 0 0 0 0 0 0 0 0 0 0 0 0 0 0 0 0 0 0 0 0 0 0 0 0 0 0 0 0 0 0 0 0 0 0
0 0 0 0 0 0 0 0 0 0 0 0 0 0 0 0 0 0 0 0 0 0 0 0 0 0 0 0 0 0 0 0 0 0 0 0 0 0 0 0 0 0 0
0 0 0 0 0 0 0 0 0 0 0 0 0 0 0 0 0 0 0 0 0 0 0 0 0 0 0 0 0 0 0 0 0 0 0 0 0 0 0 0 0 0 0
0 0 0 0 0 0 0 0 0 0 0 0 0 0 0 0 0 0 0 0 0 0 0 0 0 0 0 0 0 0 0 0 0 0 0 0 0 0 0 0 0 0 0
0 0 0 0 0 0 0 0 0 0 0 0 0 0 0 0 0 0 0 0 0 0 0 0 0 0 0 0 0 0 0 0 0 0 0 0 0 0 0 0 0 0 0
0 0 0 0 0 0 0 0 0 0 0 0 0 0 0 0 0 0 0 0 0 0 0 0 0 0 0 0 0 0 0 0 0 0 0 0 0 0 0 0 0 0 0
0 0 0 0 0 0 0 0 0 0 0 0 0 0 0 0 0 0 0 0 0 0 0 0 0 0 0 0 0 0 0 0 0 0 0 0 0 0 0 0 0 0 0
0 0 0 0 0 0 0 0 0 0 0 0 0 0 0 0 0 0 0 0 0 0 0 0 0 0 0 0 0 0 0 0 0 0 0 0 0 0 0 0 0 0 0
0 0 0 0 0 0 0 0 0 0 0 0 0 0 0 0 0 0 0 0 0 0 0 0 0 0 0 0 0 0 0 0 0 0 0 0 0 0 0 0 0 0 0
0 0 0 0 0 0 0 0 0 0 0 0 0 0 0 0 0 0 0 0 0 0 0 0 0 0 0 0 0 0 0 0 0 0 0 0 0 0 0 0 0 0 0
0 0 0 0 0 0 0 0 0 0 0 0 0 0 0 0 0 0 0 0 0 0 0 0 0 0 0 0 0 0 0 0 0 0 0 0 0 0 0 0 0 0 0
0 0 0 0 0 0 0 0 0 0 0 0 0 0 0 0 0 0 0 0 0 0 0 0 0 0 0 0 0 0 0 0 0 0 0 0 0 0 0 0 0 0 0
0 0 0 0 0 0 0 0 0 0 0 0 0 0 0 0 0 0 0 0 0 0 0 0 0 0 0 0 0 0 0 0 0 0 0 0 0 0 0 0 0 0 0
0 0 0 0 0 0 0 0 0 0 0 0 0 0 0 0 0 0 0 0 0 0 0 0 0 0 0 0 0 0 0 0 0 0 0 0 0 0 0 0 0 0 0
0 0 0 0 0 0 0 0 0 0 0 0 0 0 0 0 0 0 0 0 0 0 0 0 0 0 0 0 0 0 0 0 0 0 0 0 0 0 0 0 0 0 0
0 0 0 0 0 0 0 0 0 0 0 0 0 0 0 0 0 0 0 0 0 0 0 0 0 0 0 0 0 0 0 0 0 0 0 0 0 0 0 0 0 0 0
Wind_Speed
4 4 4 4 5 6 6 5 5 5 3 2 2 1 2 2 2 2 3 4 3 4 4 4 5 5 5 6 6 5 6 5 3 2 2 2 3 4 5 5 5 6 7
5 6 5 5 5 6 6 6 5 5 4 3 2 2 2 2 2 3 3 4 4 4 4 5 5 5 5 6 6 6 5 4 5 4 3 2 2 3 5 4 5 6 5
4 5 6 6 6 6 6 6 6 5 5 4 2 2 1 1 1 2 3 4 4 4 3 4 4 4 5 5 6 6 7 5 5 4 4 4 4 2 2 4 5 5 5
3 4 5 6 6 6 6 6 6 6 5 3 2 2 2 3 3 2 2 3 3 3 4 4 5 4 4 5 6 6 5 6 5 4 3 2 3 3 2 2 4 5 6
2 3 4 5 5 6 5 5 6 6 5 4 2 2 2 3 2 2 2 2 2 2 3 4 4 4 4 5 5 5 6 5 5 4 3 2 1 2 2 3 3 3 5
2 3 4 4 5 5 5 5 5 6 5 4 3 2 2 3 3 3 2 2 1 1 2 2 3 4 4 5 5 5 5 5 5 4 4 3 3 3 2 2 3 4 4
2 3 5 5 6 6 6 6 6 7 6 4 4 3 2 2 2 2 2 2 1 2 2 2 3 3 3 4 4 4 5 5 6 6 5 4 4 3 3 2 2 3 3
2 2 3 4 5 6 6 6 6 6 6 5 4 3 3 2 1 2 1 1 2 2 2 2 3 3 3 3 3 3 4 4 6 6 6 4 4 4 3 3 3 3 4
2 2 3 4 5 6 6 6 5 6 6 6 5 4 3 2 2 2 1 1 1 1 1 2 3 3 3 3 3 3 3 3 4 5 6 5 4 4 4 4 4 4 6
2 3 3 3 4 4 5 5 5 5 5 5 5 4 3 3 2 2 2 2 2 2 1 1 2 2 2 3 3 2 3 3 3 3 4 4 3 3 3 4 4 5 6
2 3 3 3 3 4 4 5 6 6 6 6 5 4 3 2 2 2 2 2 2 2 2 2 1 1 1 2 2 3 3 3 4 3 4 5 4 3 3 3 3 4 4
1 2 3 3 4 4 4 5 5 5 6 6 5 5 4 4 3 3 3 2 2 2 2 2 1 1 1 0 1 2 3 3 4 4 4 5 4 5 4 4 5 5 5
1 2 2 3 4 4 4 4 4 5 5 5 5 5 5 5 4 4 3 3 2 2 2 1 1 1 1 1 1 1 1 2 3 3 3 4 4 5 4 4 5 5 4
2 2 2 3 3 4 3 4 4 4 4 4 4 4 4 4 4 4 4 4 3 3 2 2 2 2 1 1 1 1 1 2 3 3 4 4 5 5 5 5 6 5 5
3 3 2 2 3 3 4 4 4 4 4 4 4 4 4 3 4 4 4 3 3 3 2 2 3 3 2 2 1 1 1 1 2 2 3 3 5 6 6 5 5 5 6
4 3 3 2 3 3 3 4 4 4 3 3 4 4 4 4 4 4 4 3 4 3 3 3 3 3 3 4 4 2 1 1 2 3 3 3 4 5 7 8 9 8 7
5 4 3 3 3 3 3 3 3 3 3 3 4 4 3 4 4 4 4 4 4 4 3 3 3 3 4 6 6 4 2 2 2 3 3 3 4 4 4 5 7 8 9
5 5 4 3 3 2 2 2 2 3 3 3 3 3 3 3 3 4 4 4 3 3 3 3 3 3 4 7 7 6 2 2 2 3 3 3 4 4 5 5 5 5 6
5 5 4 3 2 2 2 2 2 2 3 3 4 3 3 3 3 3 4 3 3 3 3 3 3 3 4 6 6 5 2 2 3 3 3 4 4 7 7 5 5 6 6
3 3 3 2 2 2 1 1 2 2 3 3 3 3 3 2 2 3 3 3 3 3 3 3 3 4 4 6 6 6 2 3 3 3 4 5 6 8 8 5 4 6 6
4 3 3 3 4 3 2 2 2 3 4 3 3 2 2 2 2 2 2 2 2 2 2 3 3 4 4 6 7 7 3 3 3 3 4 4 8 9 8 7 5 7 7
3 3 3 4 3 3 2 2 4 4 3 2 2 2 2 2 2 2 2 2 2 2 3 3 4 3 4 6 6 8 6 5 3 4 4 4 8 8 8 6 7 8 7
4 4 4 4 3 3 3 4 4 3 2 2 2 2 2 2 2 1 2 2 2 1 2 2 3 4 4 4 7 8 8 7 4 4 6 8 8 7 5 6 8 6 4
4 3 3 4 4 4 4 4 3 2 2 2 3 2 1 2 2 1 1 1 1 2 2 2 3 4 4 4 4 4 4 6 5 4 5 7 7 5 5 6 5 3 4
4 3 4 5 5 4 4 4 3 2 2 3 2 2 2 2 2 2 2 2 2 2 2 2 2 3 4 5 8 6 4 4 4 5 3 3 3 3 3 4 3 3 4
4 4 5 5 5 4 4 4 3 3 3 3 3 2 2 2 1 1 2 3 3 4 4 4 3 3 5 8 9 9 8 7 7 4 3 4 3 3 4 4 4 4 4
Wind_Direction
307 323 330 331 338 336 333 322 310 303 302 300 281 270 269 271 269 256 254 248 238 220 203 208 202 195 193 196 196 193 190 194 177 168 213 249 229 217 214 208 203 206 205
332 334 333 337 333 329 328 324 314 307 299 281 266 244 241 241 242 255 256 251 242 229 215 207 205 199 195 195 195 189 190 194 182 168 159 211 250 244 227 213 210 210 203
312 323 331 331 329 324 323 321 318 316 308 299 295 301 294 286 263 256 249 244 236 227 218 215 208 207 200 199 197 192 190 194 195 179 168 173 209 227 241 221 214 211 208
314 321 330 330 323 317 321 322 320 321 314 305 287 260 251 255 254 253 252 250 230 220 219 211 210 207 209 206 202 196 192 186 194 198 201 191 167 175 223 249 226 218 217
312 321 320 318 321 323 327 327 331 332 335 338 316 275 263 259 260 260 255 259 249 226 220 216 211 212 211 211 211 206 196 193 194 191 189 199 201 173 181 227 226 233 228
318 329 330 332 331 334 338 338 343 342 342 348 343 316 284 274 268 266 260 261 253 237 229 224 218 220 218 211 210 210 203 203 199 195 188 179 184 187 186 225 238 241 237
322 337 341 340 338 339 342 346 353 349 349 350 348 334 304 288 272 272 238 237 244 240 234 230 225 225 226 218 209 209 211 207 202 203 206 206 210 196 194 214 246 263 259
315 324 328 333 335 339 346 350 352 346 346 350 344 343 336 322 305 292 271 243 231 241 236 235 233 224 219 217 205 213 219 212 209 211 209 213 218 212 209 201 214 262 259
302 310 325 338 338 340 343 344 343 346 348 347 345 346 344 344 336 330 319 300 275 264 250 239 246 235 211 204 198 213 213 210 215 216 214 215 219 219 222 217 208 219 256
308 319 327 335 336 335 340 348 353 352 347 346 345 342 337 342 332 344 351 354 340 326 319 271 256 248 230 211 203 224 220 212 222 219 217 223 222 223 221 224 229 227 242
292 312 322 328 331 339 345 349 352 354 354 353 352 351 348 353 4 5 353 357 347 334 324 326 310 292 257 223 209 219 221 224 232 231 230 233 228 229 227 224 225 234 239
267 308 319 329 335 338 342 345 347 351 351 351 354 359 1 5 11 1 346 352 335 317 315 328 334 343 340 335 236 232 231 230 235 236 236 238 235 234 235 234 237 238 235
277 313 324 328 326 328 336 340 343 344 346 354 358 1 2 3 360 352 348 350 345 347 354 356 354 344 339 330 272 233 231 237 243 241 244 245 235 241 243 242 244 244 247
246 267 293 308 316 322 329 334 333 337 343 351 355 357 356 356 351 351 352 352 353 357 9 16 16 9 0 343 322 293 253 263 263 253 247 248 242 243 245 248 246 249 252
244 246 262 286 307 322 325 327 326 331 337 345 348 343 344 351 355 356 349 350 360 6 13 25 20 11 5 351 329 282 277 273 288 280 263 260 260 257 255 257 251 247 250
237 244 253 273 292 303 312 324 324 320 329 336 337 340 348 357 1 354 353 359 6 7 22 32 23 10 355 1 359 349 326 306 302 305 293 285 279 279 275 269 265 257 252
230 233 237 246 259 274 289 305 308 317 331 328 329 338 345 352 352 351 3 3 360 9 20 23 18 2 356 0 360 358 339 333 321 310 303 303 307 307 289 284 281 270 266
226 229 230 240 251 260 285 303 318 324 324 320 320 328 335 340 345 356 356 349 352 3 5 7 1 348 351 358 358 356 347 328 313 302 299 292 297 300 298 290 287 278 269
223 220 218 223 232 246 267 303 314 315 318 317 319 323 325 332 343 350 348 342 347 353 354 348 347 340 339 350 349 347 326 318 309 308 311 304 294 306 310 297 290 290 285
222 213 209 211 222 244 244 267 291 299 295 294 299 311 322 328 335 334 334 334 339 347 349 347 340 332 329 341 344 341 320 317 315 315 312 312 312 314 316 299 292 292 295
226 209 201 210 223 225 214 248 270 272 279 288 296 306 319 316 316 323 326 329 338 348 343 334 332 333 332 338 345 342 331 316 316 317 314 311 319 318 315 308 292 293 301
230 214 210 226 229 212 203 244 259 269 283 289 292 300 310 313 323 322 323 328 334 342 334 332 334 335 332 341 340 341 339 334 315 310 307 309 321 321 320 313 313 316 314
232 224 218 228 232 219 211 237 259 271 282 276 274 283 298 310 315 313 314 321 330 332 322 325 326 328 331 333 343 343 339 337 328 313 315 320 327 324 318 320 324 320 302
238 229 219 228 237 231 229 237 251 250 251 257 265 270 272 295 304 300 300 299 297 305 310 314 315 316 319 324 332 332 331 331 326 321 320 322 325 324 321 322 320 312 303
237 223 225 233 239 234 235 240 234 224 239 251 256 261 260 269 277 280 274 276 269 277 295 297 297 307 314 324 329 327 323 322 316 319 318 318 321 325 323 320 313 311 311
236 236 238 240 241 233 238 239 225 218 226 240 245 247 254 268 276 287 307 299 292 307 317 322 313 303 310 323 328 329 331 332 332 330 321 320 315 314 313 313 313 309 309